Printer-friendly version

IAU Minor Planet Center

Minor Planet Center

MPEC 2000-R07: 2000 QC34

The following Minor Planet Electronic Circular may be linked-to from your own Web pages, but must not otherwise be redistributed electronically.


Read MPEC 2000-R06 Read MPEC 2000-R08


M.P.E.C. 2000-R07                                Issued 2000 Sept. 2, 21:16 UT

     The Minor Planet Electronic Circulars contain information on unusual
         minor planets and routine data on comets.  They are published
   on behalf of Commission 20 of the International Astronomical Union by the
          Minor Planet Center, Smithsonian Astrophysical Observatory,
                          Cambridge, MA 02138, U.S.A.

             Prepared using the Tamkin Foundation Computer Network

             BMARSDEN@CFA.HARVARD.EDU or GWILLIAMS@CFA.HARVARD.EDU
          URL http://cfa-www.harvard.edu/iau/mpc.html  ISSN 1523-6714

                                   2000 QC34

Observations:
     K00Q34C* C2000 08 25.26671 22 46 52.81 +00 12 12.7          18.7        704
     K00Q34C  C2000 08 25.27959 22 46 52.98 +00 11 56.7          19.0        704
     K00Q34C  C2000 08 25.31840 22 46 53.23 +00 11 12.1          19.1        704
     K00Q34C  C2000 08 29.28503 22 47 40.25 -01 10 20.1          18.8        704
     K00Q34C  C2000 08 29.29848 22 47 40.38 -01 10 36.9          18.5        704
     K00Q34C  C2000 08 29.31190 22 47 40.43 -01 10 54.5          18.7        704
     K00Q34C  C2000 08 29.32534 22 47 40.51 -01 11 12.5          18.8        704
     K00Q34C  C2000 08 31.33567 22 48 02.84 -01 55 28.8          18.9        704
     K00Q34C  C2000 08 31.36450 22 48 02.97 -01 56 07.7          19.0        704
     K00Q34C  C2000 08 31.37786 22 48 03.06 -01 56 25.7          18.9        704
     K00Q34C  C2000 08 31.95219 22 48 09.79 -02 09 28.7                      557
     K00Q34C  C2000 08 31.95934 22 48 09.85 -02 09 38.0                      557
     K00Q34C  C2000 09 01.21560 22 48 13.02 -02 15 24.8                      711
     K00Q34C  C2000 09 01.22191 22 48 13.07 -02 15 33.6                      711
     K00Q34C HC2000 09 01.24048 22 48 13.28 -02 15 58.5          19.1 V      691
     K00Q34C HC2000 09 01.24426 22 48 13.28 -02 16 04.3          19.2 V      691
     K00Q34C HC2000 09 01.24811 22 48 13.28 -02 16 09.1          18.9 V      691
     K00Q34C  C2000 09 01.81622 22 48 19.90 -02 29 16.0                      046
     K00Q34C  C2000 09 01.81959 22 48 19.92 -02 29 20.6          17.7 R      046
     K00Q34C  C2000 09 01.82064 22 48 19.92 -02 29 21.6                      046
     K00Q34C  C2000 09 01.82295 22 48 19.90 -02 29 25.7          17.6 R      046
     K00Q34C  C2000 09 01.85425 22 48 20.13 -02 30 09.1                      557
     K00Q34C  C2000 09 01.87140 22 48 20.32 -02 30 32.1          18.4 V      595
     K00Q34C  C2000 09 01.87382 22 48 20.26 -02 30 36.4                      557
     K00Q34C  C2000 09 01.89264 22 48 20.49 -02 31 01.6          18.0 R      118
     K00Q34C  C2000 09 01.89876 22 48 20.49 -02 31 10.1                      118
     K00Q34C  C2000 09 01.93434 22 48 20.77 -02 31 59.2                      595
     K00Q34C  C2000 09 01.94381 22 48 20.79 -02 32 12.3                      595
     K00Q34C  C2000 09 01.95184 22 48 20.88 -02 32 23.1                      595
     K00Q34C  C2000 09 01.96181 22 48 20.97 -02 32 37.2                      595
     K00Q34C  C2000 09 02.21177 22 48 24.09 -02 38 21.8                      711
     K00Q34C  C2000 09 02.21802 22 48 24.13 -02 38 30.7                      711
     K00Q34C  C2000 09 02.22414 22 48 24.29 -02 38 37.4                      711

Observer details:
046 Klet.  Observers J. Ticha, M. Tichy, Z. Moravec.  0.57-m f/5.2 reflector
    + CCD.
118 Modra.  Observers A. Galad, J. Toth.  0.6-m f/5.5 reflector + CCD.
557 Ondrejov.  Observers P. Pravec, P. Kusnirak, U. Babiakova.  0.65-m f/3.6
    reflector + CCD.
595 Farra d'Isonzo.  Observers G. Lombardi, E. Pettarin.  0.40-m f/4.5
    reflector + CCD.
691 Steward Observatory, Kitt Peak.  Observer J. L. Montani.  0.9-m Spacewatch
    telescope.
704 Lincoln Laboratory ETS, New Mexico.  Observers M. Blythe, F. Shelly,
    M. Bezpalko, M. Elowitz, R. Huber, L. Manguso.  Measurers J. Stuart,
    R. Sayer, J. B. Evans, H. Viggh.  1.0-m f/2.15 reflector + CCD.
711 McDonald Observatory.  Observers P. J. Shelus, J. A. Shelus.  0.76-m
    reflector + CCD.

Orbital elements:
2000 QC34
Epoch 2000 Aug. 24.0 TT = JDT 2451780.5                 Spahr
M 349.45937              (2000.0)            P               Q
n   0.18063751     Peri.  204.29219     +0.97582980     -0.21230772
a   3.0993034      Node   167.62624     +0.21809568     +0.96110920
e   0.5143555      Incl.   13.98444     -0.01380123     +0.17661979
P   5.46           H   18.7           G   0.15
From 33 observations 2000 Aug. 25-Sept. 2.

Ephemeris:
2000 QC34                a,e,i = 3.10, 0.51, 14                  q = 1.5052
Date    TT    R. A. (2000) Decl.     Delta      r     Elong.  Phase     V
2000 08 24    22 46.60   +00 36.6    0.614    1.613   165.6     9.0    19.3
2000 09 03    22 48.54   -02 56.6    0.573    1.581   175.4     2.9    18.8
2000 09 13    22 50.77   -07 04.5    0.552    1.553   170.8     5.9    18.8
2000 09 23    22 54.47   -11 15.2    0.550    1.532   160.0    13.0    19.1
2000 10 03    23 00.66   -14 54.9    0.567    1.516   149.5    19.5    19.4
2000 10 13    23 09.99   -17 39.0    0.599    1.508   140.2    25.0    19.6
2000 10 23    23 22.41   -19 17.8    0.644    1.505   132.2    29.3    19.9
2000 11 02    23 37.54   -19 52.2    0.701    1.510   125.3    32.4    20.2
2000 11 12    23 54.78   -19 29.7    0.767    1.521   119.4    34.6    20.5
2000 11 22    00 13.48   -18 20.7    0.842    1.538   114.2    35.8    20.7
2000 12 02    00 33.13   -16 35.6    0.925    1.562   109.6    36.5    21.0
2000 12 12    00 53.36   -14 24.2    1.016    1.591   105.3    36.7    21.2
2000 12 22    01 13.89   -11 55.5    1.115    1.625   101.3    36.4    21.5
2001 01 01    01 34.59   -09 16.8    1.222    1.663    97.3    35.9    21.7
2001 01 11    01 55.37   -06 34.3    1.337    1.706    93.4    35.1    21.9

Gareth V. Williams           (C) Copyright 2000 MPC           M.P.E.C. 2000-R07

Read MPEC 2000-R06 Read MPEC 2000-R08


Our Web policy. Index to the CBAT/MPC/ICQ pages.


Valid HTML 4.01!